Wind_Speed
16 19 25 32 46 57 58 60 63 63 58 54 60 61 53 58 62 62 61 53 44 46 53 61 58 59 57 67 71 69 67 57 50 48 42 45 47 48 50 50 53 52 52 49
15 10 12 18 31 44 48 43 51 57 42 34 42 37 39 49 63 65 59 61 59 36 34 50 57 62 60 63 71 71 67 59 58 53 50 50 51 53 53 50 49 50 47 48
10 6 6 14 28 38 49 45 35 30 25 38 34 39 38 43 49 53 56 61 64 61 39 38 43 46 57 57 60 73 68 64 58 58 56 54 56 57 53 49 48 48 45 47
12 9 6 8 36 35 44 38 33 28 16 28 39 39 48 33 33 42 50 52 56 60 58 44 39 43 50 52 59 70 71 64 61 58 58 52 52 52 50 50 49 48 46 46
11 18 17 11 19 30 34 29 25 22 19 27 31 33 36 32 33 33 34 39 47 46 48 52 50 43 43 52 62 67 70 78 73 57 55 52 47 44 45 47 47 47 48 45
13 17 17 17 30 19 21 24 25 24 30 33 30 26 19 28 29 30 27 29 31 31 35 41 45 48 45 54 66 60 57 64 60 43 39 42 47 49 48 47 43 45 49 49
18 18 14 12 25 32 28 35 37 35 33 32 17 27 22 22 17 16 22 22 24 31 33 31 33 24 29 43 36 32 38 42 41 40 38 43 45 44 44 44 44 51 51 50
24 22 21 21 16 30 32 23 27 43 38 38 37 27 25 17 16 12 26 26 22 22 23 27 33 20 22 24 24 27 31 32 34 37 39 41 43 44 49 52 52 54 54 54
20 17 14 17 17 26 31 33 18 22 25 27 27 23 17 22 27 27 22 23 18 19 23 22 25 27 24 27 31 35 36 37 41 42 44 45 46 46 47 50 52 53 53 55
17 15 25 21 15 21 21 28 27 21 24 29 28 20 26 21 24 23 20 20 19 22 25 30 33 32 30 26 29 37 37 38 38 41 42 43 45 47 47 48 49 50 53 55
26 26 24 31 24 34 28 39 32 32 27 22 21 25 31 27 25 26 23 22 18 16 22 26 28 28 27 25 29 35 38 39 38 41 42 44 46 45 46 47 49 51 54 55
30 36 27 31 28 31 24 18 24 30 27 28 18 17 26 27 31 28 26 23 19 23 25 27 30 30 28 30 31 32 32 33 37 35 38 42 45 46 49 51 53 55 56 58
25 38 28 34 29 29 35 29 21 29 27 29 9 10 12 12 28 23 25 25 29 23 26 30 33 34 30 30 31 31 31 35 37 40 42 45 46 48 49 51 52 54 56 58
38 30 32 25 26 23 33 36 30 29 30 32 30 28 23 23 26 31 26 19 24 29 24 21 24 27 30 32 33 33 34 35 33 38 43 46 47 50 53 54 56 58 58 59
43 38 35 35 27 31 28 35 34 35 33 30 31 34 32 32 28 15 21 24 26 32 38 29 27 27 27 29 30 32 35 37 41 46 51 53 57 59 60 62 64 64 64 65
46 41 36 22 24 29 29 26 37 34 31 21 32 36 35 45 38 38 40 38 22 24 30 32 28 24 26 31 37 42 44 47 50 54 58 61 66 68 69 71 70 69 66 62
38 42 32 30 29 24 23 21 25 29 31 37 38 34 34 41 39 32 28 27 27 27 25 26 26 28 32 36 41 47 51 55 56 58 61 63 64 64 63 63 61 58 55 50
42 45 43 36 36 30 24 27 28 23 27 23 29 35 50 48 33 33 30 28 26 24 24 26 29 34 38 42 47 51 53 51 52 55 53 51 48 48 49 49 46 41 38 40
28 27 39 37 37 29 24 21 21 25 21 24 22 19 19 25 26 27 28 28 25 24 25 29 33 39 42 48 52 51 49 48 48 46 46 45 42 39 36 35 36 39 40 40
24 25 28 18 29 29 19 18 20 24 23 24 25 22 20 23 25 26 25 24 25 27 29 33 36 41 46 52 52 46 44 43 44 43 43 43 41 40 39 39 39 34 35 37
20 27 24 27 21 16 17 21 25 24 23 22 21 21 20 22 26 26 27 26 27 30 33 37 42 47 50 53 49 44 42 40 40 40 41 41 40 38 33 30 34 34 33 35
21 20 19 20 23 24 21 20 21 19 19 19 20 20 21 24 26 27 28 28 30 33 36 41 46 50 54 49 45 43 40 38 38 38 39 35 32 31 34 34 32 33 37 39
19 18 19 19 19 21 19 17 18 22 21 21 20 23 25 24 25 27 29 31 33 36 39 44 48 53 49 45 41 39 37 35 34 33 31 32 34 34 32 31 35 38 39 41
18 19 18 20 21 21 21 22 21 21 21 23 23 24 25 25 26 28 30 31 34 38 41 45 50 48 45 42 39 36 35 32 32 30 32 35 32 30 32 35 34 37 41 42
16 18 21 22 23 20 17 21 22 24 23 23 25 24 25 26 27 28 29 31 34 38 41 46 45 43 42 38 35 34 33 26 26 29 30 27 27 29 29 34 38 38 42 49
17 16 14 16 20 18 16 20 22 24 23 26 25 26 27 26 27 28 30 33 37 39 43 44 42 42 39 34 31 28 21 20 23 26 23 25 26 28 31 33 35 43 46 50
Wind_Direction
233 256 258 241 229 223 223 225 225 227 226 230 235 233 243 238 237 240 238 235 242 246 245 248 255 262 266 263 264 263 265 262 260 269 275 273 272 275 280 284 287 288 290 293
237 269 248 230 229 223 210 209 223 229 225 222 234 238 232 235 239 238 241 237 236 239 248 251 254 257 266 266 263 267 268 275 276 276 274 274 276 279 282 283 284 286 290 292
244 211 261 217 214 210 202 202 213 220 213 220 238 248 242 249 246 244 244 243 241 240 250 256 259 260 256 271 267 261 269 267 267 273 275 275 277 280 282 284 285 285 287 285
203 197 160 219 204 188 192 193 182 198 197 241 238 251 246 248 255 253 251 249 247 248 241 255 257 261 259 264 263 262 266 269 271 274 276 276 278 282 281 280 283 284 283 288
202 186 167 180 194 179 190 191 200 189 227 253 230 248 249 261 254 258 257 255 251 249 253 253 258 264 270 261 256 258 263 263 270 272 274 275 280 280 281 283 284 286 286 286
202 197 177 180 170 186 166 184 212 209 242 225 235 253 247 231 257 258 255 253 249 249 257 261 259 270 271 258 254 255 261 262 264 269 274 273 269 270 277 282 283 286 289 287
187 186 168 171 188 185 194 202 202 217 218 228 233 237 254 233 213 232 252 250 254 256 253 257 264 257 263 257 250 257 260 262 267 266 266 268 269 271 274 276 280 279 279 281
182 193 178 206 213 189 196 214 215 209 225 230 232 231 233 191 219 219 227 243 248 248 252 253 255 258 265 277 278 265 268 270 269 269 271 272 276 277 280 278 276 275 276 278
189 180 190 198 207 188 195 208 205 206 202 221 218 228 234 209 216 232 233 236 235 234 246 255 260 258 264 264 271 267 264 263 266 267 268 270 268 269 271 273 274 277 278 278
163 202 193 196 212 196 197 211 212 218 218 212 206 225 231 243 232 237 238 253 258 261 262 256 251 253 255 260 266 268 267 268 266 268 270 271 275 274 273 274 275 276 278 278
173 218 218 190 203 198 199 194 215 232 235 238 239 208 204 225 227 238 249 254 256 262 272 272 266 262 264 266 258 263 268 268 271 276 278 276 275 277 279 279 279 278 278 278
194 204 212 186 198 208 205 218 216 226 228 254 256 247 183 219 213 227 236 244 251 251 267 274 278 275 280 275 272 271 273 279 280 275 273 275 275 275 276 277 277 279 281 280
213 211 208 187 203 192 206 217 226 215 226 249 265 267 246 247 214 197 222 245 238 247 243 283 281 281 279 274 275 277 277 275 276 279 278 277 278 277 276 278 279 279 279 279
205 207 220 198 205 199 204 210 218 218 222 234 244 254 255 254 277 226 214 256 267 266 281 276 261 264 275 280 279 277 279 280 281 280 279 278 278 279 279 279 280 280 281 283
207 214 209 212 214 222 214 212 215 222 236 241 233 244 250 259 272 201 265 264 268 260 274 276 279 282 283 281 285 286 284 285 285 287 287 287 286 283 283 283 283 284 286 289
208 217 219 217 218 211 201 206 211 218 222 213 226 238 240 244 243 259 273 279 266 269 275 281 287 290 290 295 294 293 293 292 290 292 291 289 286 286 285 283 285 286 288 289
220 220 224 230 233 234 226 201 217 230 235 235 235 228 234 241 252 259 254 246 268 270 271 278 283 288 293 295 299 303 306 304 303 300 298 297 294 290 288 285 282 285 286 286
215 219 222 228 232 244 242 238 229 231 218 228 231 235 228 239 252 251 255 261 273 273 277 281 290 297 299 302 306 309 307 304 302 305 306 302 296 290 287 286 286 285 287 286
221 223 214 214 214 224 232 198 194 209 219 223 240 237 237 233 245 255 263 264 270 275 280 288 294 302 305 309 312 310 306 304 307 307 305 304 302 301 298 294 292 292 288 289
216 197 203 196 197 202 205 200 213 227 230 233 239 244 247 251 255 257 264 269 271 273 281 289 295 303 305 310 310 307 303 301 300 300 300 299 299 299 298 297 295 293 293 295
176 179 192 182 188 204 205 207 219 221 230 234 242 247 247 249 258 263 261 261 271 278 289 297 297 300 304 309 306 301 301 299 301 301 301 301 300 299 300 299 297 298 298 299
185 190 201 208 208 214 217 217 226 233 233 239 243 249 255 257 262 269 271 274 281 290 294 299 301 302 305 304 301 300 300 301 302 303 303 301 300 299 300 300 301 301 300 300
185 191 205 216 225 220 237 242 239 241 242 247 248 248 252 261 266 270 276 281 285 292 295 298 302 306 306 303 300 296 296 299 300 300 302 302 301 300 301 304 302 302 303 307
194 206 214 220 228 228 226 233 244 249 249 249 253 258 261 266 271 276 279 284 288 291 298 302 307 307 305 303 300 297 295 293 294 290 294 300 300 301 303 304 306 308 309 313
204 209 220 224 234 236 235 237 243 248 251 255 258 264 270 274 278 280 283 287 290 294 298 304 305 304 303 299 298 298 297 286 285 290 298 299 302 302 304 309 310 311 316 320
213 225 235 245 249 245 243 245 248 251 254 258 263 268 271 274 278 281 288 291 293 296 302 304 305 306 307 298 297 299 289 282 290 297 295 300 305 307 312 316 319 319 323 323
Height
5712 5714 5718 5724 5729 5738 5745 5752 5760 5769 5781 5781 5782 5794 5803 5807 5807 5813 5824 5833 5837 5842 5846 5841 5843 5844 5845 5844 5837 5841 5844 5852 5859 5860 5861 5863 5865 5865 5865 5864 5863 5860 5857 5858
5707 5708 5709 5714 5721 5729 5737 5745 5752 5761 5776 5778 5779 5784 5791 5793 5799 5806 5811 5820 5828 5836 5839 5838 5839 5841 5841 5839 5836 5832 5834 5840 5840 5848 5853 5855 5856 5857 5856 5856 5855 5852 5851 5848
5705 5704 5706 5708 5715 5722 5731 5738 5748 5759 5769 5774 5776 5775 5784 5789 5792 5796 5802 5809 5815 5824 5831 5830 5831 5833 5835 5834 5835 5833 5835 5838 5839 5835 5843 5845 5845 5846 5846 5846 5845 5843 5842 5839
5701 5701 5703 5708 5712 5720 5728 5741 5749 5756 5759 5761 5768 5769 5774 5783 5784 5786 5793 5798 5806 5812 5823 5821 5823 5824 5826 5829 5830 5830 5828 5831 5832 5834 5830 5830 5833 5836 5836 5837 5838 5834 5833 5834
5700 5699 5701 5707 5713 5720 5727 5736 5745 5753 5755 5757 5761 5763 5768 5774 5777 5782 5784 5790 5795 5802 5808 5816 5814 5816 5819 5822 5821 5822 5823 5822 5825 5824 5825 5825 5826 5828 5827 5826 5826 5823 5821 5823
5697 5702 5704 5710 5716 5722 5730 5737 5742 5746 5750 5750 5756 5760 5767 5766 5776 5777 5778 5782 5787 5793 5798 5802 5807 5808 5809 5811 5812 5812 5815 5815 5814 5814 5815 5816 5817 5818 5818 5820 5818 5815 5812 5810
5695 5700 5705 5711 5715 5720 5727 5731 5736 5739 5742 5745 5752 5755 5759 5765 5770 5773 5772 5773 5779 5783 5787 5793 5798 5798 5800 5802 5802 5804 5805 5805 5807 5806 5808 5808 5808 5808 5807 5808 5807 5808 5804 5800
5693 5699 5703 5708 5712 5719 5725 5725 5731 5736 5741 5746 5752 5748 5754 5761 5764 5770 5769 5770 5773 5776 5779 5784 5789 5792 5794 5794 5797 5798 5798 5797 5798 5798 5797 5798 5796 5795 5794 5792 5792 5794 5792 5787
5692 5700 5706 5708 5714 5718 5723 5725 5733 5733 5738 5742 5745 5745 5748 5756 5756 5762 5767 5771 5771 5772 5772 5775 5777 5780 5784 5787 5789 5790 5790 5789 5789 5788 5787 5786 5785 5783 5782 5781 5778 5776 5775 5775
5696 5699 5701 5708 5714 5719 5721 5728 5731 5730 5735 5734 5739 5737 5744 5748 5751 5757 5762 5765 5766 5767 5768 5770 5772 5774 5778 5780 5779 5778 5778 5778 5778 5778 5776 5776 5775 5773 5770 5768 5765 5763 5761 5760
5691 5694 5699 5704 5707 5712 5717 5720 5724 5729 5730 5729 5732 5734 5734 5739 5743 5749 5753 5755 5758 5760 5760 5758 5760 5763 5765 5770 5770 5770 5768 5767 5768 5767 5765 5764 5763 5759 5757 5755 5753 5751 5749 5747
5687 5689 5695 5700 5705 5712 5716 5719 5723 5725 5730 5727 5727 5729 5731 5734 5735 5741 5745 5749 5753 5754 5755 5755 5756 5757 5757 5757 5762 5762 5761 5758 5755 5757 5757 5753 5751 5750 5747 5743 5740 5738 5734 5731
5684 5686 5691 5697 5701 5707 5712 5716 5720 5723 5724 5724 5721 5727 5731 5732 5733 5736 5740 5743 5746 5751 5752 5753 5749 5748 5748 5752 5752 5751 5751 5752 5749 5747 5744 5742 5739 5737 5734 5730 5726 5723 5718 5714
5678 5684 5688 5692 5698 5705 5709 5712 5716 5717 5720 5722 5724 5723 5726 5730 5729 5732 5732 5738 5741 5742 5744 5747 5747 5746 5745 5745 5745 5743 5742 5741 5738 5735 5730 5728 5726 5723 5719 5714 5710 5707 5702 5699
5673 5677 5685 5689 5695 5700 5703 5707 5711 5713 5717 5722 5721 5721 5724 5723 5725 5727 5731 5735 5737 5737 5735 5739 5739 5738 5738 5737 5735 5734 5733 5730 5727 5723 5717 5713 5709 5704 5700 5695 5690 5686 5683 5678
5669 5673 5681 5684 5689 5694 5698 5703 5705 5709 5713 5715 5718 5719 5723 5719 5719 5724 5726 5729 5729 5730 5729 5728 5731 5731 5730 5727 5723 5720 5718 5714 5711 5705 5701 5694 5689 5684 5678 5673 5669 5666 5661 5655
5667 5671 5678 5682 5684 5688 5695 5699 5704 5706 5708 5709 5714 5717 5713 5714 5715 5718 5719 5721 5727 5729 5728 5725 5724 5723 5721 5718 5713 5707 5701 5695 5690 5685 5680 5674 5667 5662 5657 5653 5647 5644 5641 5639
5661 5666 5673 5677 5681 5685 5692 5693 5698 5701 5700 5702 5704 5704 5709 5708 5716 5718 5719 5721 5722 5721 5719 5717 5715 5712 5708 5705 5701 5696 5690 5684 5677 5671 5664 5657 5649 5643 5638 5634 5632 5631 5629 5626
5655 5660 5665 5671 5678 5684 5685 5687 5691 5691 5698 5699 5696 5700 5704 5709 5710 5710 5712 5713 5714 5714 5711 5708 5705 5701 5696 5691 5687 5681 5675 5670 5666 5660 5652 5645 5639 5633 5629 5626 5624 5622 5618 5615
5652 5654 5662 5667 5670 5676 5683 5685 5688 5691 5694 5695 5695 5698 5702 5702 5704 5705 5707 5707 5706 5704 5702 5700 5696 5692 5687 5682 5676 5671 5666 5660 5655 5649 5643 5637 5632 5627 5622 5618 5615 5611 5607 5604
5647 5651 5659 5662 5666 5672 5677 5680 5682 5686 5691 5690 5692 5694 5698 5698 5698 5699 5699 5699 5697 5695 5693 5689 5685 5680 5675 5670 5663 5658 5654 5650 5644 5638 5632 5628 5622 5618 5613 5610 5606 5602 5598 5594
5649 5653 5657 5661 5664 5669 5673 5677 5679 5682 5683 5686 5689 5691 5691 5691 5690 5690 5689 5689 5688 5685 5683 5679 5674 5668 5663 5657 5651 5646 5642 5638 5633 5628 5623 5618 5615 5611 5607 5603 5598 5593 5589 5585
5646 5651 5654 5660 5664 5669 5672 5673 5674 5676 5679 5682 5684 5683 5684 5685 5684 5683 5682 5680 5679 5677 5674 5669 5662 5655 5649 5644 5640 5636 5633 5629 5624 5620 5616 5613 5609 5604 5599 5595 5591 5585 5579 5575
5643 5647 5652 5656 5659 5664 5667 5668 5671 5672 5673 5674 5675 5676 5676 5677 5676 5675 5673 5673 5670 5666 5662 5656 5650 5644 5638 5633 5629 5626 5624 5620 5616 5614 5610 5607 5603 5598 5593 5588 5583 5578 5572 5566
5642 5644 5647 5650 5653 5658 5663 5665 5665 5666 5667 5668 5667 5668 5669 5668 5667 5666 5665 5663 5660 5656 5652 5646 5641 5635 5630 5625 5621 5617 5613 5611 5610 5607 5605 5601 5597 5592 5587 5582 5576 5570 5562 5554
5638 5642 5646 5648 5650 5654 5658 5658 5660 5660 5661 5660 5662 5662 5661 5660 5659 5657 5656 5653 5650 5646 5641 5636 5631 5626 5620 5616 5613 5609 5606 5605 5604 5602 5599 5595 5591 5587 5583 5578 5569 5560 5554 5543